| time (UTC) | temp F | wind direction | speed MPH | gust MPH | rain 1hr in | rain 24hr in | rain mn in | humidity % | barometer mb |
| 20260508115527 | 48 | 217 | 5.0 | 11.0 | 0.00 | 0.00 | 0.00 | 83 | 1013.7 |
| 20260508115027 | 48 | 187 | 6.0 | 11.0 | 0.00 | 0.00 | 0.00 | 85 | 1013.6 |
| 20260508114542 | 47 | 200 | 6.0 | 11.0 | 0.00 | 0.00 | 0.00 | 86 | 1013.5 |
| 20260508114028 | 47 | 191 | 5.0 | 8.0 | 0.00 | 0.00 | 0.00 | 87 | 1013.5 |
| 20260508113529 | 46 | 182 | 4.0 | 7.0 | 0.00 | 0.00 | 0.00 | 87 | 1013.4 |
| 20260508113059 | 46 | 192 | 4.0 | 6.0 | 0.00 | 0.00 | 0.00 | 88 | 1013.6 |
| 20260508112531 | 45 | 183 | 4.0 | 6.0 | 0.00 | 0.00 | 0.00 | 88 | 1013.6 |
| 20260508112027 | 45 | 195 | 3.0 | 7.0 | 0.00 | 0.00 | 0.00 | 88 | 1013.6 |
| 20260508111546 | 45 | 178 | 4.0 | 7.0 | 0.00 | 0.00 | 0.00 | 88 | 1013.4 |
| 20260508111028 | 45 | 198 | 4.0 | 6.0 | 0.00 | 0.00 | 0.00 | 88 | 1013.5 |
| 20260508110528 | 44 | 194 | 3.0 | 6.0 | 0.00 | 0.00 | 0.00 | 87 | 1013.5 |
| 20260508110050 | 45 | 183 | 3.0 | 6.0 | 0.00 | 0.00 | 0.00 | 87 | 1013.2 |
| 20260508105527 | 45 | 181 | 3.0 | 8.0 | 0.00 | 0.00 | 0.00 | 87 | 1013.3 |
| 20260508105027 | 45 | 183 | 4.0 | 8.0 | 0.00 | 0.00 | 0.00 | 87 | 1013.3 |
| 20260508104544 | 45 | 173 | 5.0 | 8.0 | 0.00 | 0.00 | 0.00 | 87 | 1013.4 |
| 20260508104027 | 45 | 190 | 5.0 | 10.0 | 0.00 | 0.00 | 0.00 | 86 | 1013.1 |
| 20260508103529 | 46 | 180 | 5.0 | 10.0 | 0.00 | 0.00 | 0.00 | 86 | 1013.1 |
| 20260508103053 | 46 | 192 | 6.0 | 11.0 | 0.00 | 0.00 | 0.00 | 86 | 1013.2 |
| 20260508102527 | 46 | 200 | 6.0 | 12.0 | 0.00 | 0.00 | 0.00 | 86 | 1013.2 |
| 20260508102028 | 46 | 196 | 7.0 | 12.0 | 0.00 | 0.00 | 0.00 | 85 | 1013.3 |
| 20260508101541 | 46 | 209 | 5.0 | 11.0 | 0.00 | 0.00 | 0.00 | 85 | 1013.3 |
| 20260508101028 | 47 | 216 | 5.0 | 17.0 | 0.00 | 0.00 | 0.00 | 84 | 1014.0 |
| 20260508100528 | 47 | 226 | 4.0 | 17.0 | 0.00 | 0.00 | 0.00 | 84 | 1014.0 |
| 20260508100042 | 47 | 228 | 10.0 | 16.0 | 0.00 | 0.00 | 0.00 | 83 | 1013.9 |
| 20260508095527 | 47 | 215 | 4.0 | 12.0 | 0.00 | 0.00 | 0.00 | 84 | 1014.0 |
| 20260508095027 | 47 | 227 | 4.0 | 16.0 | 0.00 | 0.00 | 0.00 | 82 | 1013.8 |
| 20260508094540 | 47 | 216 | 5.0 | 22.0 | 0.00 | 0.00 | 0.00 | 81 | 1013.3 |
| 20260508094027 | 47 | 204 | 12.0 | 22.0 | 0.00 | 0.00 | 0.00 | 81 | 1013.2 |
| 20260508093527 | 47 | 186 | 9.0 | 16.0 | 0.00 | 0.00 | 0.00 | 83 | 1013.1 |
| 20260508093046 | 47 | 206 | 1.0 | 5.0 | 0.00 | 0.00 | 0.00 | 83 | 1013.7 |
| 20260508092527 | 47 | 205 | 2.0 | 5.0 | 0.00 | 0.00 | 0.00 | 83 | 1013.3 |
| 20260508092027 | 47 | 0 | 1.0 | 5.0 | 0.00 | 0.00 | 0.00 | 83 | 1013.3 |
| 20260508091552 | 47 | 208 | 3.0 | 6.0 | 0.00 | 0.00 | 0.00 | 83 | 1013.3 |
| 20260508091028 | 47 | 210 | 3.0 | 6.0 | 0.00 | 0.00 | 0.00 | 83 | 1013.3 |
| 20260508090528 | 47 | 205 | 3.0 | 5.0 | 0.00 | 0.00 | 0.00 | 83 | 1013.3 |
| 20260508090059 | 47 | 212 | 1.0 | 8.0 | 0.00 | 0.00 | 0.00 | 83 | 1013.3 |
| 20260508085527 | 47 | 248 | 3.0 | 10.0 | 0.00 | 0.00 | 0.00 | 83 | 1013.5 |
| 20260508085027 | 47 | 242 | 4.0 | 10.0 | 0.00 | 0.00 | 0.00 | 82 | 1013.5 |
| 20260508084545 | 47 | 261 | 4.0 | 10.0 | 0.00 | 0.00 | 0.00 | 82 | 1013.4 |
| 20260508084029 | 46 | 186 | 5.0 | 10.0 | 0.00 | 0.00 | 0.00 | 83 | 1013.5 |
| 20260508083528 | 46 | 205 | 4.0 | 10.0 | 0.00 | 0.00 | 0.00 | 83 | 1013.4 |
| 20260508083042 | 46 | 243 | 3.0 | 11.0 | 0.00 | 0.00 | 0.00 | 83 | 1013.7 |
| 20260508082529 | 45 | 228 | 4.0 | 11.0 | 0.00 | 0.00 | 0.00 | 84 | 1013.6 |
| 20260508082030 | 45 | 211 | 3.0 | 9.0 | 0.00 | 0.00 | 0.00 | 84 | 1013.6 |
| 20260508081543 | 45 | 208 | 4.0 | 9.0 | 0.00 | 0.00 | 0.00 | 84 | 1013.6 |
| 20260508081030 | 45 | 202 | 3.0 | 8.0 | 0.00 | 0.00 | 0.00 | 84 | 1013.7 |
| 20260508080531 | 45 | 204 | 4.0 | 12.0 | 0.00 | 0.00 | 0.00 | 83 | 1013.6 |
| 20260508080044 | 45 | 219 | 4.0 | 12.0 | 0.00 | 0.00 | 0.00 | 83 | 1013.6 |
| 20260508075528 | 45 | 212 | 6.0 | 9.0 | 0.00 | 0.00 | 0.00 | 84 | 1013.6 |
| 20260508075027 | 45 | 205 | 5.0 | 9.0 | 0.00 | 0.00 | 0.00 | 84 | 1013.6 |
| 20260508074545 | 45 | 193 | 5.0 | 9.0 | 0.00 | 0.00 | 0.00 | 84 | 1013.7 |
| 20260508074031 | 45 | 192 | 4.0 | 9.0 | 0.00 | 0.00 | 0.00 | 84 | 1013.6 |
| 20260508073527 | 45 | 192 | 5.0 | 9.0 | 0.00 | 0.00 | 0.00 | 84 | 1013.7 |
| 20260508073101 | 45 | 200 | 4.0 | 8.0 | 0.00 | 0.00 | 0.00 | 84 | 1013.7 |
| 20260508072534 | 45 | 196 | 4.0 | 10.0 | 0.00 | 0.00 | 0.00 | 84 | 1013.7 |
| 20260508072029 | 45 | 196 | 5.0 | 10.0 | 0.00 | 0.00 | 0.00 | 84 | 1013.7 |
| 20260508071549 | 45 | 200 | 5.0 | 15.0 | 0.00 | 0.00 | 0.00 | 84 | 1013.9 |
| 20260508071031 | 46 | 204 | 6.0 | 15.0 | 0.00 | 0.00 | 0.00 | 84 | 1013.9 |
| 20260508070528 | 46 | 219 | 6.0 | 11.0 | 0.00 | 0.00 | 0.00 | 84 | 1013.9 |
| 20260508070049 | 46 | 190 | 7.0 | 11.0 | 0.00 | 0.00 | 0.00 | 83 | 1014.0 |
| 20260508065529 | 46 | 204 | 6.0 | 12.0 | 0.00 | 0.00 | 0.00 | 83 | 1014.0 |
| 20260508065028 | 46 | 205 | 8.0 | 13.0 | 0.00 | 0.00 | 0.00 | 83 | 1013.8 |
| 20260508064546 | 46 | 219 | 8.0 | 14.0 | 0.00 | 0.00 | 0.00 | 83 | 1013.9 |
| 20260508064028 | 47 | 213 | 8.0 | 20.0 | 0.00 | 0.00 | 0.00 | 83 | 1013.9 |
| 20260508063528 | 47 | 211 | 9.0 | 20.0 | 0.00 | 0.00 | 0.00 | 82 | 1014.0 |
| 20260508063044 | 47 | 215 | 12.0 | 30.0 | 0.00 | 0.00 | 0.00 | 82 | 1013.9 |
| 20260508062528 | 47 | 206 | 14.0 | 30.0 | 0.00 | 0.00 | 0.00 | 81 | 1013.7 |
| 20260508062028 | 48 | 232 | 9.0 | 24.0 | 0.00 | 0.00 | 0.00 | 79 | 1013.9 |
| 20260508061542 | 49 | 209 | 9.0 | 24.0 | 0.00 | 0.00 | 0.00 | 75 | 1014.2 |
| 20260508061027 | 49 | 202 | 13.0 | 19.0 | 0.00 | 0.00 | 0.00 | 73 | 1014.0 |
| 20260508060528 | 49 | 212 | 9.0 | 17.0 | 0.00 | 0.00 | 0.00 | 74 | 1014.1 |
| 20260508060048 | 48 | 216 | 6.0 | 11.0 | 0.00 | 0.00 | 0.00 | 74 | 1014.0 |
| 20260508055527 | 48 | 222 | 6.0 | 11.0 | 0.00 | 0.00 | 0.00 | 74 | 1014.0 |
| 20260508055027 | 47 | 199 | 5.0 | 11.0 | 0.00 | 0.00 | 0.00 | 76 | 1014.0 |
| 20260508054545 | 47 | 199 | 4.0 | 9.0 | 0.00 | 0.00 | 0.00 | 77 | 1014.1 |
| 20260508054027 | 46 | 188 | 5.0 | 8.0 | 0.00 | 0.00 | 0.00 | 78 | 1014.2 |
| 20260508053532 | 46 | 199 | 5.0 | 8.0 | 0.00 | 0.00 | 0.00 | 78 | 1014.2 |
| 20260508053101 | 45 | 198 | 4.0 | 7.0 | 0.00 | 0.00 | 0.00 | 80 | 1014.1 |
| 20260508052528 | 44 | 184 | 4.0 | 6.0 | 0.00 | 0.00 | 0.00 | 82 | 1014.2 |
| 20260508052028 | 44 | 178 | 3.0 | 5.0 | 0.00 | 0.00 | 0.00 | 83 | 1014.3 |
| 20260508051544 | 44 | 182 | 3.0 | 4.0 | 0.00 | 0.00 | 0.00 | 83 | 1014.3 |
| 20260508051028 | 44 | 185 | 2.0 | 3.0 | 0.00 | 0.00 | 0.00 | 83 | 1014.3 |
| 20260508050528 | 44 | 186 | 2.0 | 3.0 | 0.00 | 0.00 | 0.00 | 83 | 1014.4 |
| 20260508050044 | 44 | 186 | 2.0 | 3.0 | 0.00 | 0.00 | 0.00 | 83 | 1014.3 |
| 20260508045530 | 44 | 186 | 2.0 | 3.0 | 0.00 | 0.00 | 0.00 | 83 | 1014.5 |
| 20260508045027 | 44 | 186 | 1.0 | 3.0 | 0.00 | 0.00 | 0.00 | 83 | 1014.5 |
| 20260508044541 | 44 | 186 | 0.0 | 2.0 | 0.00 | 0.00 | 0.00 | 82 | 1014.5 |
| 20260508044101 | 45 | 0 | 0.0 | 3.0 | 0.00 | 0.00 | 0.00 | 81 | 1014.4 |
| 20260508043527 | 45 | 186 | 1.0 | 3.0 | 0.00 | 0.00 | 0.00 | 80 | 1014.5 |
| 20260508043042 | 45 | 186 | 1.0 | 3.0 | 0.00 | 0.00 | 0.00 | 80 | 1014.4 |
| 20260508042527 | 46 | 186 | 1.0 | 4.0 | 0.00 | 0.00 | 0.00 | 79 | 1014.3 |
| 20260508042027 | 46 | 186 | 2.0 | 4.0 | 0.00 | 0.00 | 0.00 | 79 | 1014.3 |
| 20260508041607 | 46 | 186 | 2.0 | 4.0 | 0.00 | 0.00 | 0.00 | 78 | 1014.4 |
| 20260508041027 | 46 | 187 | 2.0 | 4.0 | 0.00 | 0.00 | 0.00 | 77 | 1014.4 |
| 20260508040528 | 47 | 187 | 2.0 | 4.0 | 0.00 | 0.00 | 0.00 | 77 | 1014.5 |
| 20260508040105 | 47 | 187 | 2.0 | 6.0 | 0.00 | 0.00 | 0.00 | 75 | 1014.5 |
| 20260508035529 | 47 | 187 | 3.0 | 6.0 | 0.00 | 0.00 | 0.00 | 75 | 1014.4 |
| 20260508035032 | 48 | 188 | 3.0 | 6.0 | 0.00 | 0.00 | 0.00 | 75 | 1014.4 |
| 20260508034542 | 48 | 192 | 4.0 | 5.0 | 0.00 | 0.00 | 0.00 | 74 | 1014.6 |
| 20260508034028 | 48 | 202 | 3.0 | 5.0 | 0.00 | 0.00 | 0.00 | 75 | 1014.7 |
| 20260508033527 | 48 | 201 | 3.0 | 6.0 | 0.00 | 0.00 | 0.00 | 74 | 1014.9 |
| 20260508033042 | 48 | 206 | 3.0 | 6.0 | 0.00 | 0.00 | 0.00 | 72 | 1014.6 |
| 20260508032528 | 49 | 211 | 2.0 | 6.0 | 0.00 | 0.00 | 0.00 | 71 | 1014.8 |
| 20260508032027 | 49 | 211 | 2.0 | 6.0 | 0.00 | 0.00 | 0.00 | 70 | 1014.7 |
| 20260508031541 | 49 | 210 | 4.0 | 8.0 | 0.00 | 0.00 | 0.00 | 69 | 1014.8 |
| 20260508031027 | 49 | 232 | 1.0 | 10.0 | 0.00 | 0.00 | 0.00 | 69 | 1014.8 |
| 20260508030530 | 49 | 205 | 5.0 | 15.0 | 0.00 | 0.00 | 0.00 | 69 | 1014.8 |
| 20260508030041 | 49 | 212 | 6.0 | 15.0 | 0.00 | 0.00 | 0.00 | 68 | 1014.9 |
| 20260508025529 | 49 | 227 | 8.0 | 14.0 | 0.00 | 0.00 | 0.00 | 67 | 1015.0 |
| 20260508025028 | 50 | 210 | 4.0 | 15.0 | 0.00 | 0.00 | 0.00 | 68 | 1015.1 |
| 20260508024550 | 50 | 211 | 7.0 | 16.0 | 0.00 | 0.00 | 0.00 | 67 | 1015.0 |
| 20260508024029 | 50 | 225 | 7.0 | 16.0 | 0.00 | 0.00 | 0.00 | 65 | 1015.1 |
| 20260508023528 | 50 | 217 | 5.0 | 16.0 | 0.00 | 0.00 | 0.00 | 65 | 1015.0 |
| 20260508023042 | 49 | 228 | 5.0 | 16.0 | 0.00 | 0.00 | 0.00 | 66 | 1014.9 |
| 20260508022527 | 49 | 227 | 3.0 | 8.0 | 0.00 | 0.00 | 0.00 | 68 | 1014.9 |
| 20260508022028 | 48 | 211 | 3.0 | 6.0 | 0.00 | 0.00 | 0.00 | 68 | 1014.7 |
| 20260508021542 | 48 | 213 | 4.0 | 8.0 | 0.00 | 0.00 | 0.00 | 68 | 1014.7 |
| 20260508021028 | 48 | 213 | 3.0 | 9.0 | 0.00 | 0.00 | 0.00 | 69 | 1014.8 |
| 20260508020528 | 48 | 221 | 4.0 | 9.0 | 0.00 | 0.00 | 0.00 | 71 | 1014.6 |
| 20260508020046 | 48 | 193 | 5.0 | 8.0 | 0.00 | 0.00 | 0.00 | 73 | 1014.6 |
| 20260508015528 | 47 | 206 | 4.0 | 6.0 | 0.00 | 0.00 | 0.00 | 75 | 1014.5 |
| 20260508015027 | 46 | 204 | 2.0 | 5.0 | 0.00 | 0.00 | 0.00 | 79 | 1014.5 |
| 20260508014541 | 46 | 0 | 2.0 | 5.0 | 0.00 | 0.00 | 0.00 | 81 | 1014.5 |
| 20260508014027 | 46 | 360 | 3.0 | 5.0 | 0.00 | 0.00 | 0.00 | 81 | 1014.4 |
| 20260508013530 | 46 | 182 | 2.0 | 4.0 | 0.00 | 0.00 | 0.00 | 82 | 1014.3 |
| 20260508013050 | 46 | 0 | 0.0 | 2.0 | 0.00 | 0.00 | 0.00 | 80 | 1014.3 |
| 20260508012528 | 46 | 0 | 1.0 | 2.0 | 0.00 | 0.00 | 0.00 | 80 | 1014.2 |
| 20260508012027 | 46 | 343 | 1.0 | 3.0 | 0.00 | 0.00 | 0.00 | 80 | 1014.2 |
| 20260508011551 | 46 | 343 | 1.0 | 3.0 | 0.00 | 0.00 | 0.00 | 79 | 1014.2 |
| 20260508011027 | 46 | 343 | 2.0 | 3.0 | 0.00 | 0.00 | 0.00 | 79 | 1014.2 |
| 20260508010527 | 46 | 343 | 1.0 | 3.0 | 0.00 | 0.00 | 0.00 | 78 | 1014.1 |
| 20260508010041 | 46 | 0 | 0.0 | 0.0 | 0.00 | 0.00 | 0.00 | 76 | 1014.1 |
| 20260508005527 | 47 | 0 | 0.0 | 0.0 | 0.00 | 0.00 | 0.00 | 75 | 1014.0 |
| 20260508005030 | 47 | 0 | 0.0 | 0.0 | 0.00 | 0.00 | 0.00 | 74 | 1014.0 |
| 20260508004547 | 47 | 0 | 0.0 | 0.0 | 0.00 | 0.00 | 0.00 | 72 | 1014.1 |
| 20260508004028 | 48 | 0 | 0.0 | 0.0 | 0.00 | 0.00 | 0.00 | 72 | 1014.0 |
| 20260508003527 | 49 | 0 | 0.0 | 0.0 | 0.00 | 0.00 | 0.00 | 69 | 1014.0 |
| 20260508003044 | 49 | 0 | 0.0 | 0.0 | 0.00 | 0.00 | 0.00 | 66 | 1014.0 |
| 20260508002528 | 50 | 0 | 0.0 | 0.0 | 0.00 | 0.00 | 0.00 | 65 | 1014.0 |
| 20260508002029 | 51 | 0 | 0.0 | 0.0 | 0.00 | 0.00 | 0.00 | 65 | 1013.9 |
| 20260508001542 | 52 | 0 | 0.0 | 0.0 | 0.00 | 0.00 | 0.00 | 60 | 1013.9 |
| 20260508001027 | 52 | 0 | 0.0 | 2.0 | 0.00 | 0.00 | 0.00 | 57 | 1013.8 |
| 20260508000528 | 52 | 0 | 0.0 | 4.0 | 0.00 | 0.00 | 0.00 | 58 | 1013.8 |
| 20260508000040 | 53 | 344 | 2.0 | 4.0 | 0.00 | 0.00 | 0.00 | 57 | 1013.8 |
| 20260507235527 | 53 | 0 | 1.0 | 4.0 | 0.00 | 0.00 | 0.00 | 57 | 1013.8 |
| 20260507235027 | 53 | 344 | 1.0 | 4.0 | 0.00 | 0.00 | 0.00 | 56 | 1013.8 |
| 20260507234541 | 53 | 342 | 2.0 | 6.0 | 0.00 | 0.00 | 0.00 | 56 | 1013.8 |
| 20260507234027 | 53 | 342 | 2.0 | 6.0 | 0.00 | 0.00 | 0.00 | 57 | 1013.8 |
| 20260507233527 | 53 | 348 | 3.0 | 9.0 | 0.00 | 0.00 | 0.00 | 55 | 1013.7 |
| 20260507233059 | 54 | 336 | 3.0 | 9.0 | 0.00 | 0.00 | 0.00 | 54 | 1013.7 |
| 20260507232527 | 54 | 305 | 6.0 | 9.0 | 0.00 | 0.00 | 0.00 | 53 | 1013.7 |
| 20260507232029 | 54 | 295 | 3.0 | 12.0 | 0.00 | 0.00 | 0.00 | 51 | 1013.7 |
| 20260507231545 | 54 | 303 | 5.0 | 12.0 | 0.00 | 0.00 | 0.00 | 49 | 1013.7 |
| 20260507231028 | 55 | 306 | 4.0 | 11.0 | 0.00 | 0.00 | 0.00 | 49 | 1013.8 |
| 20260507230528 | 55 | 315 | 7.0 | 13.0 | 0.00 | 0.00 | 0.00 | 49 | 1013.7 |
| 20260507230043 | 55 | 277 | 8.0 | 13.0 | 0.00 | 0.00 | 0.00 | 48 | 1013.7 |
| 20260507225531 | 56 | 259 | 7.0 | 13.0 | 0.00 | 0.00 | 0.00 | 49 | 1013.7 |
| 20260507225031 | 56 | 299 | 6.0 | 13.0 | 0.00 | 0.00 | 0.00 | 49 | 1013.7 |
| 20260507224553 | 56 | 296 | 5.0 | 12.0 | 0.00 | 0.00 | 0.00 | 50 | 1013.8 |
| 20260507224027 | 56 | 339 | 6.0 | 16.0 | 0.00 | 0.00 | 0.00 | 49 | 1013.8 |
| 20260507223529 | 56 | 301 | 7.0 | 17.0 | 0.00 | 0.00 | 0.00 | 50 | 1013.8 |
| 20260507223041 | 56 | 319 | 8.0 | 17.0 | 0.00 | 0.00 | 0.00 | 48 | 1013.8 |
| 20260507222530 | 56 | 294 | 9.0 | 16.0 | 0.00 | 0.00 | 0.00 | 49 | 1013.8 |
| 20260507222027 | 56 | 338 | 6.0 | 15.0 | 0.00 | 0.00 | 0.00 | 50 | 1013.7 |
| 20260507221543 | 56 | 343 | 7.0 | 16.0 | 0.00 | 0.00 | 0.00 | 49 | 1013.7 |
| 20260507221027 | 57 | 283 | 9.0 | 16.0 | 0.00 | 0.00 | 0.00 | 47 | 1013.6 |
| 20260507220528 | 57 | 302 | 8.0 | 15.0 | 0.00 | 0.00 | 0.00 | 51 | 1013.8 |
| 20260507220042 | 57 | 332 | 5.0 | 14.0 | 0.00 | 0.00 | 0.00 | 52 | 1013.7 |
| 20260507215531 | 56 | 320 | 4.0 | 15.0 | 0.00 | 0.00 | 0.00 | 52 | 1013.7 |
| 20260507215028 | 56 | 307 | 8.0 | 15.0 | 0.00 | 0.00 | 0.00 | 49 | 1013.7 |
| 20260507214541 | 55 | 278 | 7.0 | 14.0 | 0.00 | 0.00 | 0.00 | 50 | 1013.7 |
| 20260507214031 | 55 | 299 | 9.0 | 16.0 | 0.00 | 0.00 | 0.00 | 49 | 1013.6 |
| 20260507213527 | 55 | 294 | 7.0 | 16.0 | 0.00 | 0.00 | 0.00 | 51 | 1013.6 |
| 20260507213100 | 56 | 257 | 7.0 | 19.0 | 0.00 | 0.00 | 0.00 | 49 | 1013.6 |
| 20260507212527 | 56 | 316 | 6.0 | 19.0 | 0.00 | 0.00 | 0.00 | 50 | 1013.5 |
| 20260507212027 | 56 | 292 | 14.0 | 24.0 | 0.00 | 0.00 | 0.00 | 48 | 1013.7 |
| 20260507211547 | 57 | 300 | 9.0 | 24.0 | 0.00 | 0.00 | 0.00 | 50 | 1013.6 |
| 20260507211030 | 57 | 292 | 10.0 | 17.0 | 0.00 | 0.00 | 0.00 | 50 | 1013.4 |
| 20260507210530 | 56 | 300 | 11.0 | 20.0 | 0.00 | 0.00 | 0.00 | 47 | 1013.4 |
| 20260507210049 | 56 | 292 | 11.0 | 20.0 | 0.00 | 0.00 | 0.00 | 48 | 1013.5 |
| 20260507205527 | 56 | 288 | 13.0 | 20.0 | 0.00 | 0.00 | 0.00 | 49 | 1013.5 |
| 20260507205027 | 56 | 276 | 8.0 | 18.0 | 0.00 | 0.00 | 0.00 | 49 | 1013.3 |
| 20260507204542 | 56 | 286 | 12.0 | 18.0 | 0.00 | 0.00 | 0.00 | 49 | 1013.2 |
| 20260507204026 | 56 | 227 | 5.0 | 17.0 | 0.00 | 0.00 | 0.00 | 52 | 1013.2 |
| 20260507203527 | 57 | 294 | 8.0 | 17.0 | 0.00 | 0.00 | 0.00 | 50 | 1013.2 |
| 20260507203044 | 56 | 276 | 7.0 | 16.0 | 0.00 | 0.00 | 0.00 | 52 | 1013.1 |
| 20260507202527 | 57 | 219 | 5.0 | 19.0 | 0.00 | 0.00 | 0.00 | 52 | 1013.1 |
| 20260507202029 | 57 | 312 | 9.0 | 22.0 | 0.00 | 0.00 | 0.00 | 53 | 1013.2 |
| 20260507201539 | 56 | 262 | 9.0 | 22.0 | 0.00 | 0.00 | 0.00 | 51 | 1013.2 |
| 20260507201027 | 56 | 269 | 10.0 | 22.0 | 0.00 | 0.00 | 0.00 | 53 | 1013.2 |
| 20260507200527 | 54 | 294 | 7.0 | 15.0 | 0.00 | 0.00 | 0.00 | 54 | 1013.3 |
| 20260507200048 | 54 | 261 | 8.0 | 17.0 | 0.00 | 0.00 | 0.00 | 55 | 1013.4 |
| 20260507195527 | 54 | 267 | 7.0 | 17.0 | 0.00 | 0.00 | 0.00 | 55 | 1013.3 |
| 20260507195028 | 55 | 305 | 12.0 | 17.0 | 0.00 | 0.00 | 0.00 | 52 | 1013.3 |
| 20260507194611 | 56 | 300 | 7.0 | 16.0 | 0.00 | 0.00 | 0.00 | 52 | 1013.3 |
| 20260507194027 | 57 | 233 | 7.0 | 17.0 | 0.00 | 0.00 | 0.00 | 53 | 1013.4 |
| 20260507193526 | 57 | 261 | 6.0 | 17.0 | 0.00 | 0.00 | 0.00 | 54 | 1013.5 |
| 20260507193044 | 57 | 297 | 7.0 | 14.0 | 0.00 | 0.00 | 0.00 | 55 | 1013.4 |
| 20260507192528 | 56 | 269 | 5.0 | 14.0 | 0.00 | 0.00 | 0.00 | 61 | 1013.7 |
| 20260507192027 | 56 | 225 | 8.0 | 20.0 | 0.00 | 0.00 | 0.00 | 55 | 1013.6 |
| 20260507191547 | 56 | 198 | 6.0 | 20.0 | 0.00 | 0.00 | 0.00 | 58 | 1013.5 |
| 20260507191027 | 56 | 265 | 8.0 | 17.0 | 0.00 | 0.00 | 0.00 | 57 | 1013.7 |
| 20260507190527 | 55 | 284 | 11.0 | 17.0 | 0.00 | 0.00 | 0.00 | 58 | 1013.7 |
| 20260507190052 | 55 | 263 | 10.0 | 18.0 | 0.00 | 0.00 | 0.00 | 59 | 1013.6 |
| 20260507185528 | 55 | 283 | 10.0 | 18.0 | 0.00 | 0.00 | 0.00 | 56 | 1013.7 |
| 20260507185027 | 56 | 292 | 9.0 | 17.0 | 0.00 | 0.00 | 0.00 | 55 | 1013.6 |
| 20260507184543 | 57 | 300 | 9.0 | 16.0 | 0.00 | 0.00 | 0.00 | 53 | 1013.6 |
| 20260507184027 | 57 | 220 | 6.0 | 14.0 | 0.00 | 0.00 | 0.00 | 57 | 1013.5 |
| 20260507183526 | 56 | 269 | 5.0 | 16.0 | 0.00 | 0.00 | 0.00 | 60 | 1013.7 |
| 20260507183048 | 56 | 210 | 6.0 | 18.0 | 0.00 | 0.00 | 0.00 | 56 | 1013.6 |
| 20260507182527 | 56 | 259 | 8.0 | 18.0 | 0.00 | 0.00 | 0.00 | 59 | 1013.8 |
| 20260507182027 | 55 | 290 | 6.0 | 18.0 | 0.00 | 0.00 | 0.00 | 59 | 1013.7 |
| 20260507181546 | 54 | 201 | 9.0 | 14.0 | 0.00 | 0.00 | 0.00 | 55 | 1013.7 |
| 20260507181030 | 54 | 276 | 5.0 | 16.0 | 0.00 | 0.00 | 0.00 | 58 | 1013.9 |
| 20260507180527 | 55 | 224 | 6.0 | 16.0 | 0.00 | 0.00 | 0.00 | 56 | 1014.0 |
| 20260507180040 | 54 | 304 | 8.0 | 16.0 | 0.00 | 0.00 | 0.00 | 57 | 1013.9 |
| 20260507175530 | 54 | 245 | 9.0 | 13.0 | 0.00 | 0.00 | 0.00 | 56 | 1014.0 |
| 20260507175029 | 54 | 292 | 7.0 | 14.0 | 0.00 | 0.00 | 0.00 | 56 | 1014.0 |
| 20260507174556 | 54 | 250 | 8.0 | 14.0 | 0.00 | 0.00 | 0.00 | 57 | 1014.0 |
| 20260507174028 | 54 | 251 | 7.0 | 11.0 | 0.00 | 0.00 | 0.00 | 58 | 1014.0 |
| 20260507173527 | 54 | 273 | 4.0 | 11.0 | 0.00 | 0.00 | 0.00 | 58 | 1014.1 |
| 20260507173113 | 55 | 274 | 5.0 | 14.0 | 0.00 | 0.00 | 0.00 | 59 | 1014.0 |
| 20260507172528 | 55 | 257 | 5.0 | 14.0 | 0.00 | 0.00 | 0.00 | 57 | 1014.1 |
| 20260507172028 | 54 | 203 | 6.0 | 16.0 | 0.00 | 0.00 | 0.00 | 60 | 1014.0 |
| 20260507171548 | 54 | 288 | 9.0 | 16.0 | 0.00 | 0.00 | 0.00 | 56 | 1014.1 |
| 20260507171028 | 55 | 268 | 5.0 | 15.0 | 0.00 | 0.00 | 0.00 | 60 | 1014.1 |
| 20260507170528 | 55 | 287 | 10.0 | 15.0 | 0.00 | 0.00 | 0.00 | 54 | 1014.2 |
| 20260507170043 | 56 | 266 | 4.0 | 14.0 | 0.00 | 0.00 | 0.00 | 63 | 1014.2 |
| 20260507165527 | 55 | 267 | 7.0 | 13.0 | 0.00 | 0.00 | 0.00 | 57 | 1014.2 |
| 20260507165030 | 55 | 348 | 5.0 | 13.0 | 0.00 | 0.00 | 0.00 | 60 | 1014.1 |
| 20260507164549 | 55 | 279 | 6.0 | 13.0 | 0.00 | 0.00 | 0.00 | 61 | 1014.3 |
| 20260507164027 | 55 | 261 | 5.0 | 11.0 | 0.00 | 0.00 | 0.00 | 57 | 1014.3 |
| 20260507163528 | 56 | 250 | 4.0 | 10.0 | 0.00 | 0.00 | 0.00 | 59 | 1014.1 |
| 20260507163040 | 56 | 275 | 4.0 | 12.0 | 0.00 | 0.00 | 0.00 | 59 | 1014.1 |
| 20260507162527 | 55 | 232 | 5.0 | 12.0 | 0.00 | 0.00 | 0.00 | 62 | 1014.1 |
| 20260507162027 | 55 | 229 | 3.0 | 12.0 | 0.00 | 0.00 | 0.00 | 60 | 1014.0 |
| 20260507161559 | 55 | 288 | 8.0 | 12.0 | 0.00 | 0.00 | 0.00 | 58 | 1014.1 |
| 20260507161028 | 56 | 249 | 5.0 | 16.0 | 0.00 | 0.00 | 0.00 | 57 | 1014.0 |
| 20260507160528 | 55 | 282 | 4.0 | 16.0 | 0.00 | 0.00 | 0.00 | 63 | 1014.2 |
| 20260507160045 | 55 | 259 | 7.0 | 16.0 | 0.00 | 0.00 | 0.00 | 62 | 1014.3 |
| 20260507155528 | 54 | 289 | 10.0 | 14.0 | 0.00 | 0.00 | 0.00 | 60 | 1014.2 |
| 20260507155028 | 54 | 271 | 7.0 | 15.0 | 0.00 | 0.00 | 0.00 | 61 | 1014.3 |
| 20260507154543 | 54 | 307 | 6.0 | 15.0 | 0.00 | 0.00 | 0.00 | 63 | 1014.3 |
| 20260507154027 | 54 | 276 | 8.0 | 15.0 | 0.00 | 0.00 | 0.00 | 60 | 1014.4 |
| 20260507153527 | 53 | 296 | 10.0 | 15.0 | 0.00 | 0.00 | 0.00 | 60 | 1014.4 |
| 20260507153043 | 54 | 265 | 5.0 | 12.0 | 0.00 | 0.00 | 0.00 | 68 | 1014.3 |
| 20260507152530 | 54 | 312 | 8.0 | 11.0 | 0.00 | 0.00 | 0.00 | 67 | 1014.4 |
| 20260507152028 | 54 | 227 | 2.0 | 14.0 | 0.00 | 0.00 | 0.00 | 68 | 1014.2 |
| 20260507151541 | 54 | 261 | 6.0 | 14.0 | 0.00 | 0.00 | 0.00 | 67 | 1014.4 |
| 20260507151028 | 54 | 238 | 4.0 | 10.0 | 0.00 | 0.00 | 0.00 | 64 | 1014.4 |
| 20260507150528 | 53 | 226 | 5.0 | 10.0 | 0.00 | 0.00 | 0.00 | 68 | 1014.4 |
| 20260507150042 | 53 | 293 | 5.0 | 10.0 | 0.00 | 0.00 | 0.00 | 67 | 1014.4 |
| 20260507145527 | 53 | 200 | 3.0 | 11.0 | 0.00 | 0.00 | 0.00 | 68 | 1014.4 |
| 20260507145027 | 53 | 263 | 4.0 | 11.0 | 0.00 | 0.00 | 0.00 | 69 | 1014.4 |
| 20260507144546 | 53 | 236 | 4.0 | 8.0 | 0.00 | 0.00 | 0.00 | 73 | 1014.4 |
| 20260507144028 | 53 | 200 | 4.0 | 10.0 | 0.00 | 0.00 | 0.00 | 69 | 1014.4 |
| 20260507143528 | 52 | 233 | 2.0 | 10.0 | 0.00 | 0.00 | 0.00 | 73 | 1014.4 |
| 20260507143043 | 52 | 308 | 4.0 | 12.0 | 0.00 | 0.00 | 0.00 | 70 | 1014.3 |
| 20260507142528 | 52 | 275 | 5.0 | 12.0 | 0.00 | 0.00 | 0.00 | 72 | 1014.3 |
| 20260507142025 | 52 | 262 | 2.0 | 10.0 | 0.00 | 0.00 | 0.00 | 72 | 1014.3 |
| 20260507141551 | 52 | 301 | 4.0 | 8.0 | 0.00 | 0.00 | 0.00 | 73 | 1014.2 |
| 20260507141028 | 51 | 240 | 3.0 | 10.0 | 0.00 | 0.00 | 0.00 | 73 | 1014.5 |
| 20260507140528 | 51 | 267 | 3.0 | 10.0 | 0.00 | 0.00 | 0.00 | 73 | 1014.5 |
| 20260507140048 | 51 | 278 | 5.0 | 9.0 | 0.00 | 0.00 | 0.00 | 74 | 1014.6 |
| 20260507135528 | 51 | 249 | 3.0 | 8.0 | 0.00 | 0.00 | 0.00 | 75 | 1014.5 |
| 20260507135027 | 50 | 223 | 5.0 | 8.0 | 0.00 | 0.00 | 0.00 | 75 | 1014.4 |
| 20260507134545 | 50 | 221 | 4.0 | 9.0 | 0.00 | 0.00 | 0.00 | 75 | 1014.6 |
| 20260507134028 | 49 | 259 | 5.0 | 9.0 | 0.00 | 0.00 | 0.00 | 75 | 1014.6 |
| 20260507133529 | 49 | 261 | 4.0 | 8.0 | 0.00 | 0.00 | 0.00 | 77 | 1014.7 |
| 20260507133042 | 49 | 224 | 4.0 | 10.0 | 0.00 | 0.00 | 0.00 | 76 | 1014.6 |
| 20260507132529 | 48 | 211 | 5.0 | 10.0 | 0.00 | 0.00 | 0.00 | 77 | 1014.6 |
| 20260507132027 | 48 | 213 | 4.0 | 9.0 | 0.00 | 0.00 | 0.00 | 78 | 1014.7 |
| 20260507131541 | 48 | 215 | 5.0 | 9.0 | 0.00 | 0.00 | 0.00 | 77 | 1014.7 |
| 20260507131030 | 48 | 187 | 3.0 | 10.0 | 0.00 | 0.00 | 0.00 | 80 | 1014.8 |
| 20260507130532 | 48 | 207 | 4.0 | 10.0 | 0.00 | 0.00 | 0.00 | 79 | 1014.8 |
| 20260507130041 | 47 | 223 | 4.0 | 10.0 | 0.00 | 0.00 | 0.00 | 80 | 1014.8 |
| 20260507125532 | 47 | 264 | 2.0 | 10.0 | 0.00 | 0.00 | 0.00 | 80 | 1014.9 |
| 20260507125027 | 47 | 213 | 4.0 | 10.0 | 0.00 | 0.00 | 0.00 | 80 | 1014.8 |
| 20260507124540 | 47 | 221 | 3.0 | 8.0 | 0.00 | 0.00 | 0.00 | 81 | 1014.9 |
| 20260507124028 | 46 | 217 | 3.0 | 8.0 | 0.00 | 0.00 | 0.00 | 81 | 1014.7 |
| 20260507123528 | 46 | 257 | 3.0 | 8.0 | 0.00 | 0.00 | 0.00 | 82 | 1014.8 |
| 20260507123048 | 46 | 230 | 2.0 | 7.0 | 0.00 | 0.00 | 0.00 | 81 | 1014.9 |
| 20260507122528 | 46 | 225 | 2.0 | 8.0 | 0.00 | 0.00 | 0.00 | 83 | 1014.8 |
| 20260507122027 | 46 | 216 | 3.0 | 8.0 | 0.00 | 0.00 | 0.00 | 82 | 1014.6 |
| 20260507121544 | 45 | 269 | 2.0 | 8.0 | 0.00 | 0.00 | 0.00 | 84 | 1014.6 |
| 20260507121028 | 45 | 251 | 3.0 | 11.0 | 0.00 | 0.00 | 0.00 | 83 | 1014.7 |
| 20260507120528 | 45 | 252 | 4.0 | 11.0 | 0.00 | 0.00 | 0.00 | 83 | 1014.6 |
| 20260507120045 | 44 | 215 | 3.0 | 11.0 | 0.00 | 0.00 | 0.00 | 85 | 1014.5 |